Theta_e
330 329 328 328 328 328 328 326 325 324 322 322 321 320 318 316 313 306 303 305 307 310 311 308 308 308 307 308 308 308 307 311 315 310 304 303 304 310 311 310 314 316 314 313 313 313 312 312 311 310 310 310 311 312 312 311 311 312 312 312 312 313 312 311 311 311 312 313 313 312 311 312 312 312
330 329 329 328 328 328 327 326 326 325 324 322 322 320 320 319 316 313 311 309 307 307 309 309 307 306 307 307 307 307 306 313 313 307 303 302 303 308 310 308 308 310 310 310 308 309 310 312 313 312 311 311 311 311 311 311 312 312 312 313 313 312 310 310 311 312 312 313 313 312 311 312 313 315
330 329 328 328 328 327 326 326 325 325 324 324 322 321 320 319 319 316 311 308 308 310 309 308 308 307 306 308 307 307 305 311 312 305 302 302 306 309 308 308 306 307 307 306 308 310 309 309 310 311 310 309 309 309 311 312 312 312 312 310 310 310 310 311 311 312 313 314 314 315 315 314 314 316
331 330 329 329 328 328 326 325 325 325 324 324 323 322 320 319 318 317 312 311 312 307 307 307 307 307 306 307 306 304 304 309 313 302 301 303 310 307 304 308 307 306 305 305 305 307 308 307 308 309 310 311 312 312 312 312 311 310 309 307 307 306 307 308 309 311 312 313 314 314 314 314 314 314
331 330 329 329 329 328 326 326 325 324 324 324 323 322 320 319 317 316 314 312 309 304 304 303 304 304 306 304 305 304 303 305 307 304 300 301 305 305 304 304 307 306 305 304 304 303 303 304 308 310 310 310 310 312 308 306 306 307 307 305 304 304 306 307 307 308 310 311 312 313 313 313 313 313
331 330 329 329 329 328 327 326 325 325 324 323 322 321 320 319 316 315 314 309 308 304 301 302 303 303 305 304 304 304 302 303 305 302 301 302 305 305 304 302 302 305 306 304 303 303 302 302 302 303 304 303 302 303 302 301 301 303 303 300 299 301 302 304 305 307 309 310 311 312 312 313 313 313
331 329 329 329 328 327 326 325 325 324 324 323 322 321 320 318 316 313 313 308 305 302 300 301 301 302 303 303 303 304 304 304 305 303 301 301 304 305 303 302 302 303 304 304 303 303 302 301 301 300 301 301 300 301 300 300 301 300 301 300 300 302 303 303 304 306 309 309 309 310 310 311 311 310
330 329 328 328 327 326 325 325 324 323 323 322 321 321 318 317 316 312 310 311 306 301 301 301 301 302 302 300 302 304 304 303 303 302 301 300 301 302 304 302 301 303 304 303 303 303 303 302 301 301 301 301 300 300 300 300 300 300 300 301 301 301 302 302 302 303 305 305 305 307 305 307 308 310
330 329 328 327 326 325 324 324 323 322 320 321 320 319 317 315 314 312 310 309 306 303 301 300 300 301 301 301 300 303 301 300 299 299 299 299 299 300 301 303 304 305 305 304 304 303 303 302 302 301 301 301 301 301 300 300 300 301 301 301 302 301 302 303 303 304 304 304 303 304 305 305 306 308
330 329 328 327 325 324 324 323 323 321 319 318 317 317 315 313 311 309 308 307 307 305 303 300 300 299 301 299 298 300 301 300 299 298 298 298 298 298 298 301 304 305 304 302 303 303 303 302 302 302 301 301 300 300 300 300 301 301 302 302 302 301 301 301 301 302 301 302 303 303 303 302 304 305
329 328 327 326 325 324 324 324 322 320 318 317 315 315 314 311 309 308 307 306 306 305 302 299 299 300 299 299 299 298 300 301 299 299 297 297 298 298 298 300 301 303 304 303 303 302 301 302 302 301 300 300 301 301 301 302 303 303 302 301 299 299 299 299 299 301 301 302 301 300 299 298 299 302
328 327 326 325 324 324 324 324 322 320 318 315 314 312 312 309 308 307 306 305 305 304 302 300 298 298 299 298 298 298 297 297 296 298 297 296 296 298 299 299 300 300 302 301 301 302 302 302 302 301 301 302 302 303 303 304 305 304 302 299 299 300 299 299 299 300 301 301 301 299 299 299 300 300
328 327 326 325 324 323 324 321 320 319 319 315 313 309 309 307 307 305 305 305 303 302 302 301 299 298 297 298 297 294 294 295 296 296 296 296 296 296 297 298 299 301 299 298 299 299 300 298 299 299 300 301 303 303 305 305 305 303 300 299 300 300 300 300 300 300 300 301 300 299 299 299 299 298
326 326 325 325 325 322 320 316 312 310 311 315 316 311 307 308 306 305 304 303 303 303 301 301 299 298 297 297 297 296 295 295 296 295 295 294 294 295 296 296 295 300 298 297 297 297 299 299 298 298 299 301 303 302 301 301 301 301 299 299 299 299 299 299 299 299 299 299 299 298 298 298 297 297
325 324 324 323 323 321 320 317 309 307 306 306 307 308 309 311 308 304 304 303 303 302 302 301 299 299 298 298 298 298 297 297 298 296 295 294 295 294 294 294 295 298 297 296 295 296 296 298 298 298 299 301 302 300 301 301 301 300 300 300 299 299 299 299 299 299 298 298 298 297 296 296 297 297
325 324 322 321 321 321 320 319 314 310 306 304 303 302 302 303 304 305 306 304 301 301 301 299 300 298 298 298 297 296 297 297 296 297 296 295 295 293 294 291 293 295 299 296 294 295 296 297 298 297 301 302 301 302 301 300 299 299 299 299 299 299 299 299 299 298 298 298 297 296 296 297 296 296
326 324 322 320 319 320 319 319 315 313 310 305 303 303 303 303 300 298 299 302 306 303 302 301 299 299 298 297 297 299 299 298 298 296 296 295 295 295 294 293 293 296 296 294 294 293 295 298 297 297 300 299 299 300 300 300 299 299 299 299 299 298 298 298 299 298 298 297 296 296 297 297 297 297
326 324 322 320 318 317 317 316 313 312 310 306 305 304 304 304 306 301 298 298 300 303 304 301 300 300 300 300 299 301 300 299 298 297 297 296 295 295 296 294 295 296 298 296 291 292 293 295 296 295 296 297 297 298 298 298 299 299 299 299 298 298 297 298 297 297 297 295 295 296 296 296 296 296
326 324 322 320 319 316 315 314 311 310 307 305 305 303 303 303 303 302 301 301 301 302 301 301 302 301 301 301 301 302 301 301 300 300 299 298 298 297 295 294 295 296 297 295 295 294 293 292 293 293 294 296 296 296 297 298 299 299 299 298 298 297 297 297 297 296 296 295 296 296 295 295 295 295
326 323 321 319 317 314 314 309 303 306 307 306 304 303 302 300 299 301 306 300 302 304 303 301 301 300 302 301 302 302 302 300 300 302 299 298 297 296 294 295 292 293 296 296 295 292 291 289 293 291 292 292 294 296 296 298 299 299 298 298 297 297 297 297 296 296 295 295 296 296 295 295 295 295
325 323 320 318 316 313 313 304 298 299 304 306 304 303 301 300 299 300 298 296 298 300 299 298 298 298 298 298 298 298 298 300 301 299 298 296 296 295 293 293 292 293 290 295 297 294 292 291 292 292 291 292 293 295 297 296 298 298 298 297 297 297 297 297 296 296 295 295 295 295 295 295 295 296
325 323 318 319 316 313 311 299 297 297 304 306 304 302 300 299 299 298 297 297 294 294 293 294 295 295 297 297 297 297 297 297 301 300 298 297 295 295 293 290 291 288 291 292 297 293 291 290 291 291 290 290 290 293 295 296 297 298 297 297 297 297 297 296 295 295 296 296 295 295 295 295 295 293
324 323 317 315 315 314 308 296 296 296 304 307 304 303 301 300 299 299 298 297 294 294 295 293 296 295 297 299 299 300 297 298 303 301 300 296 296 293 292 291 288 291 291 291 297 296 291 292 291 291 291 289 290 290 293 294 295 295 295 296 296 297 297 296 295 295 295 296 295 296 295 295 295 292
322 320 318 312 303 303 299 296 295 296 299 307 305 303 302 301 300 300 299 298 298 297 298 296 296 297 296 297 297 298 298 301 302 297 297 297 295 293 292 293 292 288 287 291 296 294 290 290 292 289 293 290 288 288 291 294 295 294 293 293 293 296 297 296 296 295 295 295 295 295 295 295 295 292
321 318 317 315 303 298 297 296 295 296 297 301 306 304 304 304 303 300 300 300 303 298 297 297 296 296 295 295 295 295 296 297 296 295 295 296 294 293 292 291 292 292 291 292 296 295 293 290 290 290 291 289 287 291 291 289 293 293 294 293 292 293 294 295 295 293 295 294 294 294 294 295 295 294
321 319 316 314 303 297 296 296 295 295 296 297 306 304 299 297 295 301 302 300 299 298 297 296 296 295 294 294 296 295 295 296 297 294 294 294 293 294 294 293 292 289 292 295 295 296 293 292 293 291 288 290 291 288 290 293 294 291 292 292 292 292 292 292 292 292 290 291 290 292 293 294 294 294
321 319 316 312 301 296 296 295 295 295 295 297 303 298 295 295 294 298 300 299 298 296 296 296 296 295 295 295 295 296 295 295 294 294 294 294 294 294 294 293 294 294 294 294 297 297 296 292 290 294 292 289 291 290 288 288 292 291 293 292 293 292 291 290 291 292 291 291 291 294 293 293 293 293
322 318 316 309 297 296 296 295 295 295 295 299 297 295 294 293 295 301 298 297 297 296 295 295 296 296 295 296 295 296 297 297 296 295 294 294 293 294 294 293 294 294 293 293 295 295 296 295 293 292 293 292 291 290 292 289 289 288 290 292 292 291 291 291 291 293 293 291 289 290 290 290 291 290
322 311 305 299 296 296 296 295 295 295 295 295 296 294 293 296 299 300 298 298 297 296 295 296 296 296 296 297 297 297 296 295 294 294 295 294 293 293 293 293 293 294 297 297 296 295 295 295 295 293 292 291 292 291 289 290 289 288 288 289 288 290 291 291 290 290 292 290 287 289 289 288 288 289
308 303 300 297 296 297 297 299 299 300 299 294 295 294 295 299 299 299 299 297 297 297 296 296 295 296 296 296 296 294 295 295 295 295 295 294 294 295 294 294 294 295 296 297 297 296 295 296 296 294 293 293 292 294 291 291 289 288 289 288 288 290 287 290 290 290 291 290 289 290 290 288 288 289
311 304 302 301 298 300 298 298 298 298 296 296 297 297 298 299 300 299 299 298 297 297 297 296 296 296 296 296 295 293 294 294 294 295 295 295 295 295 294 293 295 295 297 297 298 298 297 297 296 295 294 294 292 293 293 291 289 288 287 286 289 291 290 290 289 290 289 290 290 288 289 288 287 291
312 305 299 298 301 300 299 299 299 300 299 298 297 298 298 299 298 300 300 300 299 299 299 297 296 295 295 294 295 294 294 295 294 294 294 295 294 295 295 293 293 294 296 298 298 297 297 299 298 296 296 296 293 288 287 288 289 288 286 287 288 288 289 289 289 290 290 288 288 287 287 286 286 287
304 303 303 301 300 300 298 298 299 299 299 299 299 299 299 299 298 298 299 299 299 299 298 297 296 296 295 295 294 295 295 295 295 295 295 295 296 295 294 295 294 293 295 296 297 296 294 294 294 296 296 294 294 290 289 289 288 286 286 287 287 287 288 288 289 290 289 288 289 287 287 288 286 286
305 304 303 301 300 300 300 299 298 299 299 299 298 299 296 298 298 297 298 299 300 299 299 299 297 296 295 295 294 294 295 295 294 295 294 295 295 294 295 295 295 295 294 295 293 293 292 291 292 292 292 291 292 291 290 286 286 286 286 285 286 287 287 288 287 288 288 288 287 286 286 287 287 285
303 301 301 301 301 299 301 300 300 298 299 296 297 298 297 298 297 295 297 298 296 295 297 297 297 295 294 295 294 294 294 294 293 293 293 295 295 295 295 295 295 294 292 291 291 292 290 290 291 293 292 291 292 292 291 286 286 286 286 286 285 287 289 287 288 287 287 286 286 285 286 285 287 286
301 303 303 301 302 301 300 299 299 299 300 298 298 297 296 296 297 296 296 297 298 297 297 295 293 293 294 295 293 293 292 291 293 293 293 294 294 294 294 295 294 294 291 292 291 292 290 289 290 290 290 287 286 284 288 293 292 286 287 287 283 285 285 286 284 286 286 286 286 285 284 285 285 287
301 305 306 305 303 301 300 301 301 300 300 299 299 298 297 296 297 298 297 295 297 295 297 295 293 292 292 291 289 289 289 289 289 291 292 293 293 293 292 291 290 292 292 292 292 291 289 289 287 289 288 284 283 283 282 282 288 290 290 288 285 284 286 284 285 285 284 285 285 286 286 285 286 287
304 307 307 305 303 302 302 303 301 300 300 299 298 298 299 299 299 298 297 297 294 292 293 295 293 292 293 290 290 289 288 289 289 289 289 292 290 289 291 290 290 290 291 292 290 290 289 289 288 288 288 285 281 280 280 285 284 290 292 290 288 286 284 287 285 283 286 286 285 285 284 285 285 286
308 305 305 305 303 303 303 303 301 300 300 299 298 298 299 299 298 297 295 296 297 294 294 294 294 293 293 293 291 290 289 287 287 288 288 289 291 291 290 290 289 289 289 289 289 289 289 288 288 287 287 285 283 279 282 283 284 282 283 291 291 287 283 286 287 284 284 283 286 284 284 283 286 287
307 306 307 306 305 304 303 304 302 301 300 299 299 300 299 297 297 296 295 293 295 296 295 294 292 292 294 293 290 289 292 291 289 287 288 288 289 290 291 288 290 288 288 287 287 289 288 289 288 288 287 287 286 287 284 282 281 279 282 286 292 293 289 284 284 283 283 283 282 282 284 284 284 284
307 307 307 306 306 304 304 303 302 301 300 300 299 296 297 297 297 297 297 296 293 293 293 293 293 293 292 292 292 290 290 287 287 287 288 287 287 288 288 287 286 286 288 287 287 289 291 292 290 289 287 285 284 288 288 287 288 283 280 284 286 289 291 291 287 284 287 284 284 283 282 282 280 278
308 308 308 307 305 304 303 302 301 300 299 299 298 296 297 297 297 294 294 292 295 293 293 293 292 292 291 292 291 289 290 289 287 286 286 287 287 286 287 287 288 284 287 287 287 288 291 289 286 288 288 288 287 289 285 282 281 281 279 281 282 283 289 290 291 290 286 283 283 283 281 281 276 279
306 308 306 305 304 303 302 301 300 299 299 299 298 298 297 296 295 294 294 293 294 292 292 292 292 292 292 291 291 290 290 288 287 287 287 287 288 288 286 286 287 287 288 287 286 288 285 284 288 288 287 287 284 284 282 281 279 278 279 280 281 281 280 289 288 289 289 288 290 288 285 283 281 282
307 307 307 305 303 302 302 301 300 300 299 299 299 298 297 295 293 294 293 293 293 293 292 292 292 292 292 291 290 290 291 291 289 288 287 287 288 288 287 286 285 286 285 286 285 285 284 285 285 286 287 286 282 284 282 279 280 280 280 280 280 280 281 281 279 282 284 287 288 289 289 288 289 289
307 307 306 304 303 302 301 301 300 300 300 299 298 298 295 294 293 293 294 293 292 292 291 291 291 292 292 291 291 290 290 291 290 289 288 287 287 287 287 287 285 285 284 285 285 285 283 283 283 285 285 283 282 286 284 283 281 279 280 281 284 281 277 281 286 285 283 287 289 288 288 288 288 289
Wind_Speed
10 9 10 10 9 8 7 7 7 7 6 7 7 8 9 7 7 5 6 6 7 5 6 6 6 8 7 7 6 7 7 8 10 8 7 7 6 10 13 13 13 14 12 10 10 11 10 10 10 10 10 10 11 11 11 11 11 12 13 14 15 14 13 13 13 13 15 17 17 17 17 16 17 18
9 9 9 8 8 7 7 8 7 7 7 7 7 7 7 7 8 7 7 7 6 4 4 5 4 5 7 6 6 6 7 9 12 8 8 7 7 11 14 14 14 13 11 11 11 11 11 12 12 11 11 11 12 12 12 12 12 13 15 15 15 14 13 14 13 15 15 15 15 16 18 19 18 16
8 10 10 9 9 7 8 7 7 6 7 7 7 7 7 7 7 7 6 5 4 5 6 6 5 6 7 7 6 5 5 8 11 8 7 7 9 11 11 15 14 13 12 12 11 11 11 11 12 12 11 12 14 14 15 15 14 14 14 15 15 15 14 13 14 16 18 19 19 19 20 21 21 21
9 10 11 11 10 8 6 7 7 7 7 7 7 7 7 7 7 7 6 7 8 4 5 5 6 6 7 6 7 5 4 6 11 7 7 8 8 8 7 12 14 13 13 13 12 11 11 11 11 11 11 12 13 15 15 14 13 13 14 15 15 15 15 13 14 18 19 20 20 22 22 22 22 23
10 11 12 11 11 8 8 8 7 7 8 7 7 7 7 7 6 7 7 7 7 3 1 3 5 3 6 4 6 8 6 6 6 6 5 5 6 7 7 7 11 13 13 13 12 12 12 12 11 11 11 12 13 14 13 13 13 14 15 16 16 16 14 11 14 17 19 20 21 22 22 22 21 21
10 10 11 11 11 9 10 8 9 8 8 8 7 7 8 8 7 6 7 7 6 7 1 0 1 3 4 5 4 9 9 6 5 7 5 5 6 8 7 6 6 12 13 13 13 13 13 13 13 13 13 13 13 13 13 14 14 15 15 16 16 15 16 14 15 17 18 19 20 20 21 19 18 19
11 10 11 12 10 7 9 9 9 8 8 7 8 9 7 7 7 7 7 6 6 6 4 2 3 4 5 6 7 7 7 7 9 8 7 7 6 5 6 6 5 8 12 13 13 14 14 14 14 14 13 13 13 13 13 14 15 15 15 15 15 16 16 16 14 16 18 19 19 19 19 18 19 18
12 13 12 11 11 9 10 10 9 8 7 8 8 7 7 7 7 7 7 7 6 5 6 3 6 5 7 3 3 5 5 6 6 7 7 5 6 5 5 6 6 8 12 13 13 14 14 14 15 14 13 13 13 14 14 15 14 14 14 15 15 15 15 14 15 15 15 17 18 18 19 18 18 20
13 13 13 12 10 10 11 9 9 8 9 8 7 8 7 7 7 5 7 7 5 6 7 5 3 2 3 1 3 6 7 2 3 3 5 6 7 5 4 4 6 9 10 10 12 13 14 14 14 13 12 12 13 14 15 15 13 15 16 16 14 13 13 13 13 14 15 16 17 18 19 19 18 20
13 13 13 11 11 11 12 12 10 8 10 7 8 8 7 7 6 7 5 5 5 6 7 7 4 2 6 2 3 6 6 7 5 3 4 2 3 4 4 5 5 4 4 4 5 8 10 12 12 11 11 13 14 14 15 12 14 16 15 14 12 12 12 12 12 13 14 15 16 17 18 18 16 18
13 13 12 11 12 13 13 12 11 10 8 8 8 9 8 7 7 7 7 6 6 6 5 3 5 7 4 3 5 3 5 5 5 7 4 5 4 3 5 6 4 3 4 5 7 7 6 6 6 9 12 13 15 14 11 13 15 14 13 11 11 11 12 12 13 13 14 15 16 16 16 15 14 13
13 13 12 12 12 13 13 12 10 9 10 7 7 7 7 7 7 7 6 5 6 6 5 6 6 4 6 2 1 2 4 2 1 3 5 8 6 6 4 6 4 2 2 4 4 4 5 6 7 9 10 11 11 12 12 13 13 12 10 10 10 11 11 12 13 13 13 13 14 14 13 12 11 10
12 12 12 12 12 13 14 15 12 12 11 9 9 7 7 7 8 6 6 7 6 6 7 5 3 6 5 6 6 6 6 8 9 6 4 5 5 3 3 3 2 3 3 3 2 2 4 3 4 3 4 5 5 7 9 8 10 11 9 10 10 11 12 13 13 12 12 12 13 13 11 10 9 9
12 13 12 12 17 17 17 15 15 15 15 15 12 10 9 9 8 8 7 7 7 7 8 7 8 7 8 8 8 7 6 4 3 5 5 6 3 1 1 3 3 2 3 2 2 4 1 2 3 1 4 5 4 5 3 5 7 9 10 10 11 11 12 13 13 12 12 12 12 11 9 8 8 9
12 11 11 10 13 15 14 14 17 16 16 16 15 15 16 13 12 9 9 8 8 9 8 7 7 9 9 8 8 8 7 5 8 7 7 6 5 4 4 4 2 1 4 1 0 3 1 2 3 3 3 4 4 3 5 8 11 11 11 11 10 11 12 13 13 11 11 12 10 8 7 8 10 11
11 11 10 9 8 10 12 10 11 13 16 16 15 15 16 16 16 16 13 10 7 7 8 8 9 8 9 9 7 6 5 7 5 5 6 6 6 5 4 4 4 3 1 3 1 5 2 3 2 2 4 4 3 5 7 10 11 11 12 12 10 10 12 13 11 10 11 10 8 6 8 10 12 12
12 11 10 10 8 8 15 12 10 10 10 12 15 15 15 15 16 15 16 16 14 10 10 10 9 10 8 8 8 8 9 7 8 5 6 5 6 5 6 6 4 2 3 2 0 3 4 0 1 2 6 5 4 5 7 11 10 11 12 12 10 10 12 13 11 10 11 8 5 7 9 11 12 13
13 12 12 11 10 7 9 9 10 9 8 8 6 6 6 7 10 12 14 14 14 13 11 10 11 9 7 10 9 9 7 10 9 8 8 6 5 6 7 5 6 2 1 3 2 1 4 0 2 2 5 3 4 5 8 11 11 11 12 12 10 11 12 12 10 10 9 6 6 7 9 11 12 13
14 13 12 12 12 10 10 9 11 10 9 8 8 7 7 7 7 7 7 7 7 8 6 9 9 10 9 8 9 10 8 11 10 11 10 11 8 4 1 2 1 2 1 3 3 4 4 1 1 3 5 4 5 6 7 9 9 10 11 11 10 11 11 11 10 10 7 5 4 7 9 12 13 13
12 12 12 12 11 10 10 12 17 14 11 10 9 9 6 5 4 5 3 3 7 9 9 8 9 8 11 11 10 10 11 6 5 5 6 6 5 6 3 6 1 1 1 3 4 1 2 1 2 2 4 2 4 6 5 7 9 10 10 9 10 10 10 10 11 10 5 4 4 7 10 12 13 13
12 12 13 12 11 11 10 14 17 17 15 10 10 9 8 6 5 7 1 2 1 6 10 11 11 11 14 15 13 15 16 12 10 8 8 6 6 7 5 3 1 4 1 2 4 4 1 2 3 3 2 1 3 4 5 5 7 10 9 9 10 10 9 10 10 9 5 3 4 7 9 11 12 13
12 14 19 16 13 13 11 16 18 18 16 11 10 9 9 8 8 6 2 1 2 5 5 4 5 10 14 15 15 16 16 16 14 11 11 9 7 7 7 6 5 3 2 4 5 3 4 1 0 1 4 3 3 5 5 5 7 7 6 9 10 10 8 9 9 6 5 2 4 7 8 10 10 7
11 11 14 21 17 15 15 20 19 20 16 11 11 12 11 11 11 9 7 6 5 3 4 3 4 2 5 7 8 10 17 18 14 11 10 8 8 8 7 5 2 1 4 5 6 4 2 1 1 1 3 2 5 3 4 5 6 3 4 5 7 8 7 8 8 6 6 3 4 7 8 10 9 6
10 10 9 14 18 19 20 21 21 20 20 14 11 11 12 11 13 7 7 6 7 6 7 6 4 5 4 4 4 6 7 8 6 6 9 9 8 8 7 7 6 4 3 1 5 5 1 2 1 1 2 1 3 3 4 6 3 3 3 4 4 7 6 7 7 6 5 3 5 6 9 10 10 6
11 10 10 9 14 18 20 20 21 21 21 17 13 13 13 14 10 11 8 7 8 7 6 5 5 6 5 4 5 7 7 7 5 5 6 8 8 9 8 7 7 6 6 4 5 3 2 2 2 1 1 2 3 3 4 3 4 1 3 2 3 6 4 5 4 4 1 1 4 7 9 11 12 10
11 13 11 10 14 19 21 21 22 23 22 20 12 14 15 13 17 14 9 8 7 6 6 6 6 6 6 6 6 6 6 6 5 6 6 7 6 7 9 9 8 5 7 6 9 4 2 2 5 3 2 2 4 2 4 6 4 4 5 4 1 3 1 3 4 4 1 1 2 4 7 10 11 13
14 10 10 10 18 22 23 23 24 23 24 18 15 17 15 16 17 14 8 9 8 7 7 7 8 7 7 7 7 7 7 6 4 6 5 5 5 5 4 5 7 9 7 3 5 5 5 3 1 4 5 2 3 4 2 3 5 4 6 5 5 5 1 2 3 5 3 2 2 6 7 6 9 11
12 12 12 13 22 21 22 23 23 23 22 17 19 16 18 16 15 10 9 8 9 8 8 9 8 8 7 7 7 8 7 7 7 6 5 5 5 5 6 4 4 5 3 3 4 4 5 4 3 4 4 4 4 5 6 3 3 4 4 6 5 5 2 2 4 3 2 1 2 4 5 6 5 5
13 16 18 22 26 25 25 25 25 22 24 26 20 18 18 16 9 10 10 10 9 9 11 10 9 8 9 10 9 6 5 4 3 2 2 2 2 1 1 2 3 4 3 3 4 5 6 6 6 3 3 4 6 5 3 5 2 4 2 3 5 5 6 3 2 4 5 3 3 4 4 4 5 4
20 20 21 25 27 26 24 18 13 11 13 17 19 20 18 11 10 10 10 10 11 12 9 7 9 9 6 6 5 5 5 6 7 6 6 5 4 4 4 3 6 5 5 5 5 5 5 6 6 4 4 5 7 7 5 4 5 6 2 2 6 5 2 0 3 4 3 5 5 4 6 2 3 2
13 18 20 18 21 18 23 20 16 10 10 12 9 8 10 10 10 10 11 11 10 8 8 10 9 8 6 3 5 6 7 7 7 7 7 7 7 6 5 5 6 6 6 5 5 5 6 6 6 4 6 6 4 7 7 5 5 5 4 4 2 0 4 4 3 5 4 5 4 5 5 5 2 1
8 9 9 11 7 6 7 5 5 6 8 10 10 9 9 9 8 9 11 9 9 10 10 9 7 4 5 7 7 6 7 7 7 6 6 7 6 6 5 3 5 5 6 6 6 4 5 6 6 6 8 8 6 3 1 4 6 5 5 3 2 6 4 3 4 5 3 3 5 6 6 4 5 3
8 9 9 10 11 11 11 8 8 8 9 10 9 9 9 8 8 9 9 10 10 8 7 9 8 9 7 7 7 7 7 7 7 6 7 5 6 4 5 7 6 4 6 8 7 7 2 3 4 6 7 6 7 6 6 2 6 5 4 4 2 4 4 1 0 3 5 3 5 5 6 6 3 3
12 12 12 12 13 12 11 11 11 11 10 10 10 10 10 10 10 10 10 9 9 10 11 9 9 9 8 7 7 7 8 7 6 7 8 6 6 6 7 7 7 6 6 8 7 7 0 2 3 2 1 1 2 6 7 5 4 3 6 4 3 3 3 1 2 1 1 2 2 5 6 7 5 2
12 11 13 14 13 12 13 14 14 12 12 11 12 11 11 10 12 12 11 11 8 9 10 9 9 9 9 9 8 8 8 8 6 6 5 6 7 8 8 8 8 7 7 7 7 5 2 2 3 4 3 3 2 1 2 3 3 5 3 4 5 4 4 1 2 3 3 2 0 3 5 5 7 4
13 14 13 11 11 13 14 15 13 12 13 12 12 11 10 11 10 13 15 12 10 9 9 9 7 7 8 8 8 8 7 7 6 6 6 6 7 8 7 8 8 8 7 7 7 4 2 4 6 6 4 2 2 0 3 4 3 6 3 1 2 3 2 1 2 1 3 3 1 2 3 5 6 6
12 13 14 15 14 13 13 13 13 13 13 13 12 13 14 14 14 12 5 4 6 7 8 8 7 7 7 7 8 6 7 7 6 7 7 7 7 7 7 7 7 7 6 7 6 3 2 3 6 7 6 4 5 6 6 2 6 6 6 3 2 1 1 0 3 4 4 1 3 0 1 2 5 6
15 15 15 14 14 14 14 14 13 13 12 12 12 12 12 11 9 9 10 10 9 7 7 8 6 7 7 7 6 6 6 7 7 7 7 7 7 6 8 8 7 6 7 5 3 5 4 5 7 8 8 8 7 5 3 1 2 4 8 5 3 2 2 0 3 3 6 2 2 3 1 3 5 6
15 14 14 13 13 13 13 12 13 13 12 11 12 13 11 10 10 10 10 9 8 8 7 6 6 8 7 8 8 7 7 7 7 7 7 8 8 8 7 7 7 5 4 5 3 2 3 4 7 7 8 7 7 6 6 4 3 4 3 5 3 1 2 2 4 3 4 3 5 4 2 4 4 3
11 12 14 13 12 12 11 11 12 13 13 14 13 11 11 11 10 10 9 9 10 9 9 8 5 7 7 7 7 6 7 9 9 7 8 8 8 8 8 7 8 7 6 6 5 4 5 6 6 7 7 8 6 6 7 4 1 2 5 3 6 6 4 4 3 2 3 3 1 3 6 6 6 5
13 13 12 11 11 11 11 11 10 11 11 11 10 9 10 10 10 11 13 11 9 11 9 9 9 9 8 7 8 8 8 7 7 7 7 7 8 8 9 8 7 6 8 8 6 6 6 8 6 4 4 3 3 5 3 1 0 1 2 3 4 5 5 7 3 3 2 1 1 1 2 3 3 5
14 14 12 11 11 10 10 10 10 10 10 10 11 11 12 13 12 13 10 10 10 9 10 10 9 9 8 7 7 7 8 8 8 7 7 7 7 6 7 8 8 7 8 8 7 7 6 1 2 6 4 6 4 2 2 3 2 3 3 5 5 4 1 1 3 5 2 3 1 2 2 4 2 4
14 13 12 11 10 10 11 12 11 12 11 11 11 12 11 11 10 12 11 11 12 12 11 10 9 9 8 8 8 8 7 7 7 8 7 7 8 8 7 7 8 8 7 7 6 5 1 2 4 6 5 4 3 4 4 6 5 3 3 3 2 6 4 2 2 1 3 6 5 2 2 2 1 3
13 13 12 11 12 12 12 12 12 12 12 12 13 12 12 12 12 12 10 9 10 10 10 9 8 8 8 8 8 7 8 8 7 7 8 7 8 8 8 7 6 5 5 6 4 5 1 1 1 4 6 4 4 4 4 3 3 6 5 2 3 3 3 3 2 4 4 4 6 5 5 6 3 1
13 13 12 12 12 12 12 13 13 13 13 13 12 12 12 11 10 11 11 11 9 8 7 7 7 7 7 8 8 8 8 7 8 7 7 7 7 8 8 8 7 6 7 6 6 4 1 1 0 1 3 4 4 6 6 7 5 3 1 1 1 2 1 2 1 2 2 2 3 2 1 2 3 2
Wind_Direction
204 206 203 207 212 209 202 202 200 195 190 195 193 191 194 191 206 211 220 237 230 261 200 207 223 201 189 188 191 178 185 183 175 172 173 177 186 201 203 210 218 221 221 222 229 232 234 237 238 245 251 259 264 270 274 276 277 278 279 280 283 281 281 281 280 277 280 283 286 286 285 281 278 276
200 206 207 210 216 209 199 206 201 193 193 193 198 201 203 180 202 209 224 254 200 228 248 208 215 190 190 180 183 185 183 183 174 168 171 178 191 204 206 212 218 223 222 225 231 235 239 244 247 251 256 260 266 270 272 272 272 273 276 279 280 279 277 277 274 275 273 272 272 274 279 280 274 266
195 203 208 209 217 205 205 204 202 204 197 202 196 205 197 200 199 196 188 250 272 191 211 233 217 184 189 176 170 175 173 181 173 167 171 185 199 200 210 214 218 221 224 229 232 236 242 246 249 252 255 260 264 268 271 272 274 274 276 278 278 279 278 276 276 279 280 280 281 282 282 284 281 277
200 203 209 209 211 206 201 205 204 205 209 203 200 201 199 200 198 176 181 214 252 229 200 219 226 193 173 163 161 174 164 183 175 166 175 192 194 203 217 218 218 220 225 231 232 236 241 245 249 253 255 255 258 264 267 270 274 276 276 276 277 277 279 277 278 281 282 284 286 286 284 282 282 283
201 206 210 212 212 200 202 210 207 208 208 205 207 203 199 202 188 173 184 209 246 297 225 219 216 177 140 163 178 165 168 166 176 170 187 186 191 203 211 216 219 221 226 231 233 234 239 244 248 251 254 259 264 270 275 278 279 279 278 278 279 283 288 288 281 281 283 285 285 284 282 282 282 284
205 205 210 214 211 201 209 208 210 206 202 202 203 205 199 203 192 192 174 203 193 230 294 246 55 136 173 160 179 172 168 182 170 180 190 198 198 202 208 216 228 223 227 231 232 234 238 242 245 251 257 263 268 272 276 278 278 278 279 282 287 291 291 285 280 282 284 283 281 279 281 282 282 288
203 204 210 214 205 199 209 212 213 203 204 200 203 207 198 200 196 194 191 158 198 191 232 200 175 180 180 178 183 185 185 170 171 182 197 201 205 209 197 212 232 230 226 229 231 234 239 241 244 248 253 261 268 274 276 276 278 280 285 291 292 293 294 292 287 287 286 285 283 283 283 286 293 295
202 207 209 212 202 198 206 211 211 210 207 204 207 208 205 201 199 193 192 189 158 185 178 220 194 195 170 218 164 163 149 153 175 194 201 200 208 210 200 210 227 237 231 228 230 235 238 241 244 246 250 259 267 273 276 279 282 290 295 294 294 295 295 293 290 286 283 283 285 286 291 296 300 302
205 206 209 208 198 196 206 210 212 208 209 209 204 209 204 203 198 187 190 190 159 157 185 191 230 178 179 132 141 159 151 146 190 216 203 202 212 224 229 222 233 244 242 237 238 240 242 245 246 249 254 260 266 270 275 281 296 297 292 291 293 294 295 293 290 289 289 291 294 298 302 304 304 305
206 208 208 204 196 197 203 209 209 205 208 202 203 207 205 202 183 183 190 179 182 175 183 166 164 194 175 147 153 186 170 161 181 216 243 266 246 228 263 246 238 232 221 223 237 244 248 250 252 255 257 262 266 270 276 297 292 285 286 289 292 295 296 296 298 300 301 303 305 306 306 306 305 306
207 208 206 202 198 201 205 206 205 203 202 198 204 200 197 193 180 184 183 180 179 179 164 189 183 170 209 166 169 202 179 177 173 184 210 246 247 224 210 255 264 222 231 230 228 235 242 243 237 240 248 255 261 273 289 282 280 281 284 291 295 298 301 304 306 308 311 312 311 310 309 307 306 305
207 206 205 202 200 203 204 205 204 193 199 193 200 199 186 183 181 185 183 181 177 169 177 173 178 195 169 204 51 75 105 126 246 211 171 202 226 230 228 216 217 267 208 260 256 250 242 256 252 253 257 266 274 273 271 274 271 279 287 293 299 303 305 308 312 316 316 315 316 314 311 307 307 310
208 207 205 205 203 203 203 200 195 195 189 181 193 195 184 183 184 181 183 185 173 178 171 188 161 164 175 190 159 154 173 185 193 194 170 196 215 207 200 258 240 195 192 228 305 288 195 208 244 255 276 271 268 266 251 261 281 280 292 307 308 309 314 316 319 320 324 329 329 325 319 319 320 323
210 208 205 207 204 202 199 193 193 192 191 190 186 180 184 182 181 181 181 183 186 173 180 187 169 176 191 191 188 182 200 171 124 133 168 175 204 92 219 307 281 199 137 142 233 270 260 168 279 330 276 273 247 258 294 276 260 281 300 308 309 313 317 319 320 327 337 337 333 329 325 330 332 324
207 211 209 206 204 202 200 195 194 194 195 194 194 184 186 182 177 178 183 194 183 180 192 183 178 184 189 201 192 190 176 167 170 174 171 167 148 169 178 224 307 267 129 114 100 305 282 163 222 243 243 278 299 275 256 259 272 289 304 303 307 311 314 314 319 337 341 338 338 337 343 342 333 324
203 206 205 204 201 200 199 194 194 198 198 196 196 191 192 193 191 182 180 181 184 188 186 184 193 177 192 193 184 188 159 177 168 163 155 164 166 170 171 173 190 250 136 131 148 273 270 204 198 301 275 266 253 254 256 269 278 291 299 303 307 313 314 312 324 346 343 345 352 0 357 342 328 319
203 203 203 203 202 201 195 190 186 187 198 203 198 195 195 197 196 197 195 182 181 182 186 186 191 191 182 182 200 190 180 162 168 159 168 177 168 170 168 208 218 268 182 100 143 250 273 92 170 260 272 254 256 276 275 270 279 292 295 302 311 318 314 313 334 353 352 3 21 8 348 335 325 322
203 202 201 199 201 191 185 186 180 183 183 181 189 195 197 204 211 203 200 200 194 185 187 181 192 207 177 190 190 194 161 157 175 168 185 172 162 176 197 202 190 240 170 167 161 317 289 269 152 261 271 259 280 266 266 273 280 286 292 300 315 319 311 317 347 1 6 46 28 357 344 338 334 330
199 198 199 199 195 186 182 182 177 172 171 171 180 183 193 205 198 193 201 200 193 200 203 190 196 191 196 196 183 177 180 180 179 177 179 181 177 160 125 86 20 326 239 146 121 231 266 295 114 254 263 288 282 259 270 275 279 285 292 301 314 312 309 329 1 9 36 81 20 358 354 348 341 336
198 194 195 194 191 184 185 180 174 172 162 169 174 184 191 191 198 210 216 225 214 196 193 196 197 190 191 189 182 176 180 172 129 96 74 88 104 126 130 204 317 283 274 183 139 186 275 229 155 250 269 310 292 295 299 293 294 288 291 302 314 311 316 349 11 13 70 114 21 3 356 350 342 338
198 193 193 191 185 181 186 174 173 169 159 170 176 179 181 184 185 210 254 32 123 202 200 200 199 188 189 188 183 176 171 158 148 124 125 154 144 136 174 245 285 249 287 235 156 142 260 244 167 270 284 308 281 290 292 295 293 293 302 323 311 307 335 5 13 15 110 120 24 5 355 349 341 333
201 197 191 188 184 181 182 168 173 168 166 171 176 174 172 179 199 210 209 102 40 65 90 111 160 175 176 180 177 173 166 156 150 147 169 181 148 168 175 203 217 272 315 256 161 112 217 270 114 272 303 343 267 261 269 283 292 304 343 318 309 320 352 9 8 41 130 105 26 8 354 346 338 323
200 199 194 192 186 182 171 169 173 172 173 177 174 179 177 192 199 194 176 162 139 133 112 88 97 71 148 158 161 170 165 164 167 168 164 148 155 169 186 175 111 321 284 251 168 167 260 132 285 132 2 348 279 272 269 292 284 323 327 307 316 324 350 0 10 52 135 76 19 1 347 342 339 325
203 199 193 198 189 174 165 171 173 177 181 179 182 174 190 192 203 173 175 185 164 167 161 164 162 154 159 141 138 144 160 168 159 147 147 162 157 162 170 179 171 177 221 259 167 157 232 145 219 218 159 190 299 291 331 301 302 338 287 319 319 312 326 12 3 19 151 59 7 343 341 338 345 336
198 195 196 189 184 170 167 172 176 180 189 187 180 185 194 201 172 148 177 185 183 160 157 155 153 155 150 151 150 160 167 172 160 152 162 162 162 153 159 171 190 225 237 242 185 130 218 169 191 124 278 147 224 309 288 291 320 299 277 284 288 301 350 1 358 343 176 339 348 333 332 334 343 357
202 200 188 187 173 170 170 177 179 185 190 191 183 196 196 150 148 167 177 166 162 164 154 157 162 164 160 161 169 175 178 179 173 165 165 168 168 170 164 169 179 205 247 216 170 165 145 261 197 175 191 178 282 183 296 304 284 285 300 276 231 273 14 358 345 319 287 249 322 325 313 324 339 358
203 188 182 175 168 175 175 179 184 187 192 188 198 189 175 166 166 164 168 164 165 165 171 168 177 180 178 174 184 186 190 201 188 179 175 172 170 178 187 188 186 192 216 138 183 181 176 218 189 173 218 178 257 303 229 254 298 317 318 320 331 315 349 53 333 308 289 238 288 307 317 327 345 353
193 186 186 171 169 175 180 185 187 189 188 192 196 175 175 166 165 165 160 171 175 173 173 185 186 188 193 186 185 196 193 185 192 189 181 178 180 183 196 200 218 228 236 169 161 171 172 204 222 209 191 200 225 244 271 271 260 262 275 298 304 280 312 59 338 315 304 268 286 312 332 334 340 350
195 190 173 165 172 180 184 187 189 191 193 193 181 169 166 163 167 169 168 179 178 184 193 191 190 196 199 198 195 179 177 170 140 136 165 168 188 194 169 189 220 240 242 228 192 194 198 203 233 190 171 190 203 231 184 252 279 287 272 348 321 318 312 351 309 300 330 317 273 287 286 301 325 331
184 175 171 172 178 183 188 186 184 193 194 189 179 174 166 172 176 174 173 180 185 201 188 183 200 209 202 204 188 159 152 161 189 187 178 166 198 180 187 223 262 252 242 236 222 201 200 210 228 215 220 224 200 237 224 229 273 256 270 207 258 304 287 320 337 339 342 332 310 285 286 273 289 328
182 180 172 174 177 184 187 183 186 184 176 178 173 161 174 181 182 180 176 180 188 187 176 203 209 209 200 150 130 163 170 192 202 190 176 176 195 177 183 188 242 271 264 240 226 207 204 216 221 188 221 245 188 206 226 191 233 280 286 236 208 19 288 350 336 335 331 318 304 309 311 330 341 341
171 152 145 144 137 104 86 107 108 160 165 181 183 178 179 187 179 174 175 179 187 195 193 201 192 182 163 179 190 177 184 197 197 179 172 182 183 173 142 158 232 246 272 286 283 252 215 222 222 211 210 223 223 229 156 180 210 223 254 259 227 268 261 265 322 315 327 326 340 344 324 329 332 319
117 125 137 145 151 160 157 153 167 171 174 185 185 180 182 181 169 170 182 194 194 174 172 197 190 192 179 190 184 181 186 200 193 176 181 189 170 152 166 194 209 204 232 255 260 269 235 268 235 213 213 210 194 170 148 182 261 215 222 263 301 293 289 272 285 315 329 359 357 346 338 333 326 306
151 157 158 166 168 168 172 178 182 183 183 181 183 192 186 177 174 182 192 200 188 182 192 188 186 187 182 186 183 183 194 200 192 182 178 189 170 155 182 197 221 220 216 233 240 257 295 26 58 50 76 166 205 175 160 153 203 220 227 239 219 251 269 300 307 349 355 249 290 351 342 331 329 321
160 165 169 177 177 178 181 184 186 182 181 185 184 185 184 184 181 182 192 200 186 181 186 185 187 181 183 189 181 184 193 194 191 176 202 185 171 184 182 192 217 213 215 229 249 247 111 99 81 64 29 16 97 295 225 173 152 231 267 260 216 222 263 287 314 335 346 315 49 14 326 323 333 336
167 172 176 179 186 180 181 190 187 182 186 185 183 177 176 189 187 183 202 191 183 179 182 183 184 183 187 189 184 185 188 187 185 185 182 182 187 192 182 196 200 209 200 215 234 239 125 141 137 141 154 122 93 120 289 245 185 167 161 245 272 206 251 290 304 344 335 305 42 50 12 318 307 320
168 180 183 185 184 181 191 187 186 187 184 183 183 184 186 189 194 192 143 105 160 183 196 179 185 185 187 187 180 187 181 179 187 188 189 187 185 179 177 206 211 210 199 230 224 222 161 148 137 147 140 136 145 194 247 303 286 251 175 191 253 227 224 62 32 344 279 236 299 301 283 292 296 310
183 185 188 185 184 190 191 187 182 185 187 186 186 185 191 188 169 154 146 160 181 174 180 189 189 183 188 181 179 189 188 195 182 178 194 183 178 189 188 192 209 212 212 236 204 219 180 148 159 167 148 159 176 212 258 305 344 255 205 161 197 249 160 49 342 298 298 300 234 296 34 327 299 300
182 184 186 189 189 186 188 187 181 184 183 181 184 188 180 171 167 156 155 167 156 161 176 193 187 185 184 186 189 177 183 185 192 193 184 188 187 187 197 195 205 217 195 220 247 227 130 155 162 164 161 150 172 201 185 162 228 260 268 236 188 130 238 176 250 271 269 298 316 311 255 230 261 310
194 192 194 189 187 182 185 181 183 183 181 185 188 184 175 169 161 148 142 160 171 166 182 199 192 182 190 180 178 179 179 182 185 185 184 184 192 192 191 191 193 189 187 196 196 219 190 203 168 177 185 189 201 192 164 169 242 304 301 301 215 198 201 151 201 219 297 252 234 19 335 351 359 328
190 192 196 190 180 181 180 178 174 172 177 172 166 151 148 143 145 172 187 176 171 169 179 195 201 193 192 181 178 172 182 188 178 179 175 175 182 190 192 179 186 176 177 199 195 190 212 215 219 161 118 128 126 94 74 45 13 295 308 287 334 333 195 177 179 156 221 194 107 13 326 330 308 340
188 193 189 180 176 170 159 158 160 165 166 164 163 158 163 170 181 171 164 172 184 183 181 193 197 193 189 185 175 173 178 181 180 185 180 169 172 185 181 170 175 183 172 187 194 204 225 318 107 133 120 113 104 129 216 191 209 264 264 294 303 318 358 131 146 172 183 152 94 19 351 348 33 6
188 187 180 177 166 161 163 162 160 162 163 164 167 169 169 167 166 172 179 177 185 193 198 197 195 189 184 180 180 175 174 177 177 176 178 179 172 169 181 190 175 176 180 193 208 222 257 333 110 127 126 129 150 135 174 213 213 241 283 318 303 317 320 14 75 206 212 236 242 184 168 160 98 348
186 181 177 169 167 166 165 164 164 164 164 169 173 173 173 170 176 183 179 180 188 197 195 199 196 190 183 179 174 178 185 182 175 173 174 181 179 177 177 184 176 172 180 188 201 234 268 304 159 140 131 188 178 151 195 169 229 228 222 268 293 333 307 325 341 349 330 288 268 248 202 181 188 230
181 181 172 169 168 166 167 170 168 170 171 171 170 174 172 170 172 175 182 183 188 191 191 201 201 198 187 177 172 184 195 184 176 182 175 174 179 181 178 171 169 168 181 189 169 223 247 164 46 91 169 180 174 185 186 171 193 189 194 155 265 290 288 10 15 348 3 17 8 44 83 182 244 333